Hourly Data Report for December 21, 2004

TORONTO CITY
ONTARIO

43°40'00.000" N
79°24'00.000" W
112.50 m
6158355
71508
XTO

Download Data

Hourly Data (December 2004)
Hourly Data Report for December 21, 2004
TIME
LST
Temp Definition
°C
Dew Point Definition
°C
Rel Hum Definition
%
Precip. Amount Definition
mm

Wind Dir Definition
10's deg

Wind Spd Definition
km/h
Visibility Definition
km
Stn Press Definition
kPa
Hmdx Definition


Wind Chill Definition


Weather Definition


00:00 -7.5 -8.6 92   LegendMM LegendMM LegendMM 100.04     LegendNANA
01:00 -7.0 -8.7 88   LegendMM LegendMM LegendMM 99.87     LegendNANA
02:00 -6.7 -9.4 81   LegendMM LegendMM LegendMM 99.79     LegendNANA
03:00 -6.9 -10.0 79   LegendMM LegendMM LegendMM 99.72     LegendNANA
04:00 -6.6 -10.2 76   LegendMM LegendMM LegendMM 99.56     LegendNANA
05:00 -5.9 -9.4 76   LegendMM LegendMM LegendMM 99.49     LegendNANA
06:00 -4.4 -9.1 70   LegendMM LegendMM LegendMM 99.38     LegendNANA
07:00 -3.5 -7.8 72   LegendMM LegendMM LegendMM 99.30     LegendNANA
08:00 -2.6 -7.5 69   LegendMM LegendMM LegendMM 99.27     LegendNANA
09:00 -1.7 -6.2 71   LegendMM LegendMM LegendMM 99.29     LegendNANA
10:00 -1.6 -6.5 69   LegendMM LegendMM LegendMM 99.34     LegendNANA
11:00 -1.4 -6.2 70   LegendMM LegendMM LegendMM 99.42     LegendNANA
12:00 -0.4 -5.6 68   LegendMM LegendMM LegendMM 99.42     LegendNANA
13:00 0.5 -5.8 63   LegendMM LegendMM LegendMM 99.44     LegendNANA
14:00 0.8 -5.4 63   LegendMM LegendMM LegendMM 99.53     LegendNANA
15:00 1.0 -4.6 66   LegendMM LegendMM LegendMM 99.61     LegendNANA
16:00 0.9 -4.0 70   LegendMM LegendMM LegendMM 99.74     LegendNANA
17:00 0.1 -4.2 73   LegendMM LegendMM LegendMM 99.76     LegendNANA
18:00 0.5 -3.9 72   LegendMM LegendMM LegendMM 99.81     LegendNANA
19:00 1.7 -2.4 74   LegendMM LegendMM LegendMM 99.85     LegendNANA
20:00 1.5 -2.4 75   LegendMM LegendMM LegendMM 99.90     LegendNANA
21:00 2.1 -0.9 80   LegendMM LegendMM LegendMM 99.89     LegendNANA
22:00 3.1 0.5 83   LegendMM LegendMM LegendMM 99.91     LegendNANA
23:00 3.3 0.6 82   LegendMM LegendMM LegendMM 99.95     LegendNANA

Notes on Data Quality.

Legend

  • E = Estimated
  • M = Missing
  • NA = Not Available*
  • [empty] = Indicates an unobserved value
Date modified: